OK1JIL-13 Weather Reports


time (UTC)temp
C
wind
direction
speed
KPH
gust
KPH
rain 1hr
cm
rain 24hr
cm
rain mn
cm
humidity
%
barometer
mb
20260502162942 20 0.0 0.0 0.00 0.00 0.00 23 1022.4
20260502161943 21 0.0 0.0 0.00 0.00 0.00 21 1022.5
20260502160942 21 0.0 0.0 0.00 0.00 0.00 20 1022.7
20260502151942 20 0.0 0.0 0.00 0.00 0.00 21 1023.1
20260502150942 21 0.0 0.0 0.00 0.00 0.00 21 1023.3
20260502122942 21 0.0 0.0 0.00 0.00 0.00 22 1024.9
20260502121942 21 0.0 0.0 0.00 0.00 0.00 20 1025.0
20260502120945 21 0.0 0.0 0.00 0.00 0.00 22 1025.1
20260502120322 20 0.0 0.0 0.00 0.00 0.00 23 1025.2
20260502115322 20 0.0 0.0 0.00 0.00 0.00 21 1025.3
20260502114322 18 0.0 0.0 0.00 0.00 0.00 21 1025.4
20260502113323 20 0.0 0.0 0.00 0.00 0.00 21 1025.6
20260502112322 18 0.0 0.0 0.00 0.00 0.00 24 1025.6
20260502111322 20 0.0 0.0 0.00 0.00 0.00 22 1025.7
20260502110322 19 0.0 0.0 0.00 0.00 0.00 21 1025.8
20260502105322 18 0.0 0.0 0.00 0.00 0.00 23 1025.9
20260502104322 20 0.0 0.0 0.00 0.00 0.00 20 1025.9
20260502103322 22 0.0 0.0 0.00 0.00 0.00 18 1026.0
20260502102322 21 0.0 0.0 0.00 0.00 0.00 19 1026.1
20260502101322 22 0.0 0.0 0.00 0.00 0.00 19 1026.2
20260502100322 18 0.0 0.0 0.00 0.00 0.00 24 1026.2
20260502091322 17 0.0 0.0 0.00 0.00 0.00 23 1026.5
20260502090322 18 0.0 0.0 0.00 0.00 0.00 25 1026.6
20260502071320 16 0.0 0.0 0.00 0.00 0.00 28 1027.0
20260502070320 16 0.0 0.0 0.00 0.00 0.00 29 1027.1
20260502065320 16 0.0 0.0 0.00 0.00 0.00 30 1027.1
20260502064320 16 0.0 0.0 0.00 0.00 0.00 29 1027.1
20260502063320 17 0.0 0.0 0.00 0.00 0.00 27 1027.0
20260502062321 17 0.0 0.0 0.00 0.00 0.00 28 1027.0
20260502061320 18 0.0 0.0 0.00 0.00 0.00 27 1026.9
20260502060320 17 0.0 0.0 0.00 0.00 0.00 28 1026.9
20260502055320 18 0.0 0.0 0.00 0.00 0.00 25 1026.9
20260502054321 18 0.0 0.0 0.00 0.00 0.00 26 1026.9
20260502053320 18 0.0 0.0 0.00 0.00 0.00 28 1026.8
20260502052320 18 0.0 0.0 0.00 0.00 0.00 26 1026.8
20260502051320 17 0.0 0.0 0.00 0.00 0.00 29 1026.8
20260502050320 16 0.0 0.0 0.00 0.00 0.00 31 1026.8
20260502045320 15 0.0 0.0 0.00 0.00 0.00 31 1026.7
20260502044320 15 0.0 0.0 0.00 0.00 0.00 32 1026.7
20260502043323 16 0.0 0.0 0.00 0.00 0.00 30 1026.8
20260502042320 16 0.0 0.0 0.00 0.00 0.00 30 1026.8
20260502041320 17 0.0 0.0 0.00 0.00 0.00 30 1026.8
20260502040320 16 0.0 0.0 0.00 0.00 0.00 31 1026.8
20260502035320 14 0.0 0.0 0.00 0.00 0.00 35 1026.7
20260502034320 13 0.0 0.0 0.00 0.00 0.00 35 1026.8
20260502033320 13 0.0 0.0 0.00 0.00 0.00 36 1026.8
20260502032320 14 0.0 0.0 0.00 0.00 0.00 35 1026.8
20260502031320 13 0.0 0.0 0.00 0.00 0.00 35 1026.8
20260502030320 13 0.0 0.0 0.00 0.00 0.00 36 1027.0
20260502025320 14 0.0 0.0 0.00 0.00 0.00 36 1027.0
20260502024320 14 0.0 0.0 0.00 0.00 0.00 35 1027.1
20260502023320 14 0.0 0.0 0.00 0.00 0.00 36 1027.2
20260502022320 13 0.0 0.0 0.00 0.00 0.00 36 1027.1
20260502021321 14 0.0 0.0 0.00 0.00 0.00 35 1027.2
20260502015320 15 0.0 0.0 0.00 0.00 0.00 34 1027.2
20260502014320 13 0.0 0.0 0.00 0.00 0.00 36 1027.2
20260502013323 13 0.0 0.0 0.00 0.00 0.00 36 1027.2
20260502012320 13 0.0 0.0 0.00 0.00 0.00 37 1027.3
20260502011323 14 0.0 0.0 0.00 0.00 0.00 35 1027.3
20260502005321 15 0.0 0.0 0.00 0.00 0.00 34 1027.4
20260502004320 13 0.0 0.0 0.00 0.00 0.00 35 1027.4
20260502003321 15 0.0 0.0 0.00 0.00 0.00 33 1027.5
20260502002320 15 0.0 0.0 0.00 0.00 0.00 32 1027.6
20260502001320 15 0.0 0.0 0.00 0.00 0.00 32 1027.7
20260502000320 15 0.0 0.0 0.00 0.00 0.00 32 1027.6
20260501235324 15 0.0 0.0 0.00 0.00 0.00 33 1027.7
20260501234320 15 0.0 0.0 0.00 0.00 0.00 32 1027.7
20260501233320 15 0.0 0.0 0.00 0.00 0.00 30 1027.7
20260501232320 14 0.0 0.0 0.00 0.00 0.00 32 1027.8
20260501231320 15 0.0 0.0 0.00 0.00 0.00 32 1027.9
20260501230320 13 0.0 0.0 0.00 0.00 0.00 34 1027.8
20260501225322 13 0.0 0.0 0.00 0.00 0.00 34 1027.9
20260501224320 13 0.0 0.0 0.00 0.00 0.00 34 1027.9
20260501223320 13 0.0 0.0 0.00 0.00 0.00 34 1028.0
20260501222320 13 0.0 0.0 0.00 0.00 0.00 34 1028.0
20260501221321 12 0.0 0.0 0.00 0.00 0.00 35 1028.0
20260501220320 12 0.0 0.0 0.00 0.00 0.00 35 1028.0
20260501215320 12 0.0 0.0 0.00 0.00 0.00 35 1028.0
20260501214320 13 0.0 0.0 0.00 0.00 0.00 34 1027.9
20260501213320 13 0.0 0.0 0.00 0.00 0.00 34 1027.9
20260501212320 15 0.0 0.0 0.00 0.00 0.00 33 1028.0
20260501211320 13 0.0 0.0 0.00 0.00 0.00 35 1028.0
20260501210320 13 0.0 0.0 0.00 0.00 0.00 36 1028.0
20260501205320 13 0.0 0.0 0.00 0.00 0.00 35 1028.0
20260501204325 13 0.0 0.0 0.00 0.00 0.00 34 1028.1
20260501203319 13 0.0 0.0 0.00 0.00 0.00 34 1028.2
20260501202319 14 0.0 0.0 0.00 0.00 0.00 33 1028.2
20260501201319 15 0.0 0.0 0.00 0.00 0.00 31 1028.3
20260501200319 16 0.0 0.0 0.00 0.00 0.00 30 1028.2
20260501195319 15 0.0 0.0 0.00 0.00 0.00 30 1028.2
20260501194319 16 0.0 0.0 0.00 0.00 0.00 30 1028.2
20260501193319 16 0.0 0.0 0.00 0.00 0.00 30 1028.2
20260501192319 16 0.0 0.0 0.00 0.00 0.00 30 1028.2
20260501191321 15 0.0 0.0 0.00 0.00 0.00 32 1028.2
20260501190320 15 0.0 0.0 0.00 0.00 0.00 33 1028.1
20260501185318 15 0.0 0.0 0.00 0.00 0.00 32 1028.1
20260501184319 14 0.0 0.0 0.00 0.00 0.00 33 1028.1
20260501183319 15 0.0 0.0 0.00 0.00 0.00 32 1028.1
20260501182318 15 0.0 0.0 0.00 0.00 0.00 33 1027.9
20260501181319 14 0.0 0.0 0.00 0.00 0.00 34 1027.9
20260501180318 14 0.0 0.0 0.00 0.00 0.00 34 1027.8
20260501175319 15 0.0 0.0 0.00 0.00 0.00 32 1027.7
20260501174318 15 0.0 0.0 0.00 0.00 0.00 32 1027.6
20260501173318 15 0.0 0.0 0.00 0.00 0.00 32 1027.7
20260501172319 15 0.0 0.0 0.00 0.00 0.00 31 1027.7
20260501171319 16 0.0 0.0 0.00 0.00 0.00 30 1027.7
20260501170318 15 0.0 0.0 0.00 0.00 0.00 32 1027.7
20260501165318 16 0.0 0.0 0.00 0.00 0.00 30 1027.7
20260501164319 16 0.0 0.0 0.00 0.00 0.00 29 1027.8